Location: Battersea Observatory
(44.4318°N, 76.3841°W)
Time: 18:21:08
(UTC-05:00)

Tiangong - Pass Details

Date: 10 December 2021
Orbit: 383 x 386 km, 41.5° (Epoch: 20 January)

Event Time Altitude Azimuth Distance (km) Brightness Sun altitude
Rises 17:56:19 0° 235° (SW) 2,271 6.4 -15.5°
Reaches altitude 10° 17:58:33 10° 223° (SW) 1,416 4.9 -15.9°
Maximum altitude 18:01:21 28° 162° (SSE) 759 2.5 -16.3°
Enters shadow 18:02:08 25° 135° (SE) 828 2.5 -16.5°
